User: anonymous   Login
Location: Unspecified
(0.0000°N, 0.0000°E)
Time: 08:41:51
(UTC+02:00)
Language:

Cosmos 1626 Rocket - Orbit

View from above orbital plane
View from above orbital plane
View from above satellite
View from above satellite

Ground track
Ground track

The orbit data is extracted from the following two-line orbital elements,

1 15495U 85009B   16237.78438977  .00000081  00000-0  69367-5 0  9993
2 15495  82.5238 105.1016 0019020 225.0573 134.9100 14.83722033706019
Epoch (UTC): 24 August 2016 18:49:31
Eccentricity: 0.0019020
inclination: 82.5238°
perigee height: 604 km
apogee height: 631 km
right ascension of ascending node: 105.1016°
argument of perigee: 225.0573°
revolutions per day: 14.83722033
mean anomaly at epoch: 134.9100°
orbit number at epoch: 70601

The dashed part of the orbit path shows where the satellite is in the earth's shadow,  

DLR